Weather History for PASI - March, 2014

Change the Weather History Date:

Wednesday, March 26, 2014

  Actual Average Record
Temperature  
Mean Temperature 42 °F -  
Max Temperature 44 °F - - ()
Min Temperature 39 °F - - ()
Degree Days  
Heating Degree Days 24    
Moisture  
Dew Point 22 °F    
Average Humidity 47    
Maximum Humidity 58    
Minimum Humidity 36    
Precipitation  
Precipitation 0.00 in - - ()
Sea Level Pressure  
Sea Level Pressure 29.65 in    
Wind  
Wind Speed 5 mph (East)    
Max Wind Speed 13 mph    
Max Gust Speed 17 mph    
Visibility 10 miles    
Events      
T = Trace of Precipitation, MM = Missing Value Source: NWS Daily Summary

Daily Weather History Graph

Daily Weather History Graph

Search for Another Location

Airport or City:

Trip Planner

Search our weather history database for the weather conditions in past years. The results will help you decide how hot, cold, wet, or windy it might be!

Date:

Astronomy

Mar. 26, 2014 Rise Set
Actual Time 6:46 AM AKDT 7:28 PM AKDT
Civil Twilight 6:08 AM AKDT 8:07 PM AKDT
Nautical Twilight 5:21 AM AKDT 8:54 PM AKDT
Astronomical Twilight 4:30 AM AKDT 9:45 PM AKDT
Moon 4:49 AM AKDT (3/26) 2:30 PM AKDT (3/26)
Length of Visible Light 13h 59m
Length of Day
12h 42m
Waning Crescent, 20% of the Moon is Illuminated
Mar 26
Waning Crescent
Mar 30
New
Apr 7
First Quarter
Apr 14
Full
Apr 21
Last Quarter

Hourly Weather History & Observations

Time (AKDT) Temp. Windchill Dew Point Humidity Pressure Visibility Wind Dir Wind Speed Gust Speed Precip Events Conditions
12:53 AM 39.9 °F - 25.0 °F 55% 29.54 in 10.0 mi Calm Calm - N/A   Overcast
1:53 AM 39.9 °F 36.7 °F 21.9 °F 49% 29.55 in 10.0 mi ENE 4.6 mph - N/A   Overcast
2:53 AM 39.9 °F - 26.1 °F 58% 29.55 in 10.0 mi Calm Calm - N/A   Overcast
3:53 AM 39.9 °F - 25.0 °F 55% 29.55 in 10.0 mi Calm Calm - N/A   Overcast
4:53 AM 41.0 °F - 23.0 °F 49% 29.56 in 10.0 mi Calm Calm - N/A   Overcast
5:53 AM 39.9 °F 34.5 °F 17.1 °F 40% 29.57 in 10.0 mi East 8.1 mph - N/A   Overcast
6:53 AM 39.9 °F 35.1 °F 17.1 °F 40% 29.59 in 10.0 mi East 6.9 mph - N/A   Overcast
7:53 AM 41.0 °F 36.4 °F 16.0 °F 36% 29.60 in 10.0 mi East 6.9 mph - N/A   Overcast
8:53 AM 41.0 °F 36.4 °F 17.1 °F 38% 29.62 in 10.0 mi East 6.9 mph - N/A   Overcast
9:53 AM - - - N/A% 29.63 in - North - - N/A   Unknown
10:02 AM 42.8 °F 36.2 °F 17.6 °F 36% 29.64 in 10.0 mi ENE 12.7 mph 17.3 mph N/A   Overcast
10:53 AM 42.1 °F 36.6 °F 19.0 °F 40% 29.65 in 10.0 mi East 9.2 mph - N/A   Overcast
11:53 AM 44.1 °F 38.1 °F 19.9 °F 38% 29.67 in 10.0 mi East 11.5 mph - N/A   Overcast
12:53 PM 43.0 °F 37.7 °F 19.0 °F 38% 29.68 in 10.0 mi ESE 9.2 mph - N/A   Overcast
1:53 PM 43.0 °F 37.7 °F 19.9 °F 40% 29.69 in 10.0 mi ESE 9.2 mph - N/A   Overcast
2:53 PM 43.0 °F 37.7 °F 21.0 °F 42% 29.70 in 10.0 mi East 9.2 mph - N/A   Overcast
3:53 PM 43.0 °F 38.2 °F 21.9 °F 43% 29.70 in 10.0 mi East 8.1 mph - N/A   Overcast
4:53 PM 42.1 °F 39.2 °F 23.0 °F 47% 29.70 in 10.0 mi Variable 4.6 mph - N/A   Overcast
5:53 PM 42.1 °F 40.2 °F 24.1 °F 49% 29.70 in 10.0 mi Variable 3.5 mph - N/A   Overcast
6:53 PM 41.0 °F 35.2 °F 25.0 °F 53% 29.71 in 10.0 mi ESE 9.2 mph - N/A   Overcast
7:53 PM 39.9 °F 33.9 °F 24.1 °F 53% 29.71 in 10.0 mi ESE 9.2 mph - N/A   Overcast
8:53 PM 39.0 °F 32.8 °F 25.0 °F 57% 29.72 in 10.0 mi ESE 9.2 mph - N/A   Overcast
9:53 PM 39.0 °F 32.8 °F 25.0 °F 57% 29.72 in 10.0 mi ESE 9.2 mph - N/A   Overcast
10:53 PM 39.0 °F 35.7 °F 24.1 °F 55% 29.72 in 10.0 mi East 4.6 mph - N/A   Overcast
11:53 PM 39.0 °F 35.7 °F 21.9 °F 50% 29.73 in 10.0 mi East 4.6 mph - N/A   Overcast